Hourly Weather Khulna

Today, 10 July, Friday

Time Temperature Precipitation Wind Pressure Humidity
00:00 +30°C° 0 mm 4 mps 749 mmHg 83%
01:00 +30°C° 0.8 mm 4 mps 749 mmHg 84%
02:00 +30°C° 0.8 mm 4 mps 749 mmHg 84%
03:00 +30°C° 0.8 mm 5 mps 748 mmHg 85%
04:00 +30°C° 1.2 mm 5 mps 749 mmHg 85%
05:00 +30°C° 1.2 mm 5 mps 749 mmHg 85%
06:00 +30°C° 1.2 mm 5 mps 749 mmHg 85%
07:00 +32°C° 0.5 mm 5 mps 749 mmHg 80%
08:00 +33°C° 0.5 mm 6 mps 750 mmHg 76%
09:00 +34°C° 0.5 mm 6 mps 750 mmHg 72%
10:00 +35°C° 0.1 mm 7 mps 750 mmHg 68%
11:00 +36°C° 0.1 mm 7 mps 750 mmHg 64%
12:00 +38°C° 0.1 mm 7 mps 750 mmHg 60%
13:00 +38°C° 0.4 mm 7 mps 750 mmHg 61%
14:00 +36°C° 0.4 mm 7 mps 749 mmHg 61%
15:00 +36°C° 0.4 mm 7 mps 748 mmHg 62%
16:00 +35°C° 0.1 mm 7 mps 748 mmHg 66%
17:00 +35°C° 0.1 mm 6 mps 748 mmHg 69%
18:00 +34°C° 0.1 mm 6 mps 748 mmHg 72%
19:00 +33°C° 0 mm 6 mps 748 mmHg 75%
20:00 +32°C° 0 mm 6 mps 749 mmHg 78%
21:00 +32°C° 0 mm 5 mps 749 mmHg 80%
22:00 +32°C° 0.2 mm 6 mps 749 mmHg 81%
23:00 +30°C° 0.2 mm 6 mps 749 mmHg 82%

Tomorrow, 11 July, Saturday

Time Temperature Precipitation Wind Pressure Humidity
00:00 +30°C° 0.2 mm 6 mps 749 mmHg 83%
01:00 +30°C° 0.5 mm 6 mps 749 mmHg 83%
02:00 +30°C° 0.5 mm 6 mps 748 mmHg 84%
03:00 +30°C° 0.5 mm 6 mps 748 mmHg 84%
04:00 +30°C° 0.7 mm 6 mps 748 mmHg 85%
05:00 +30°C° 0.7 mm 6 mps 748 mmHg 85%
06:00 +30°C° 0.7 mm 6 mps 748 mmHg 85%
07:00 +30°C° 3.4 mm 6 mps 748 mmHg 83%
08:00 +32°C° 3.4 mm 6 mps 749 mmHg 82%
09:00 +32°C° 3.4 mm 6 mps 749 mmHg 80%
10:00 +33°C° 2.5 mm 6 mps 749 mmHg 79%
11:00 +33°C° 2.5 mm 5 mps 749 mmHg 77%
12:00 +34°C° 2.5 mm 5 mps 749 mmHg 76%
13:00 +33°C° 2.2 mm 5 mps 748 mmHg 77%
14:00 +33°C° 2.2 mm 5 mps 748 mmHg 79%
15:00 +32°C° 2.2 mm 5 mps 748 mmHg 81%
16:00 +32°C° 1.2 mm 4 mps 747 mmHg 82%
17:00 +32°C° 1.2 mm 4 mps 747 mmHg 84%
18:00 +30°C° 1.2 mm 3 mps 747 mmHg 86%
19:00 +30°C° 0.1 mm 3 mps 748 mmHg 86%
20:00 +30°C° 0.1 mm 4 mps 748 mmHg 87%
21:00 +30°C° 0.1 mm 4 mps 749 mmHg 88%
22:00 +30°C° 0.3 mm 4 mps 749 mmHg 88%
23:00 +30°C° 0.3 mm 4 mps 749 mmHg 88%

Day after tomorrow, 12 July, Sunday

Time Temperature Precipitation Wind Pressure Humidity
00:00 +30°C° 0.3 mm 4 mps 749 mmHg 88%
01:00 +30°C° 0.5 mm 4 mps 749 mmHg 88%
02:00 +29°C° 0.5 mm 3 mps 748 mmHg 88%
03:00 +29°C° 0.5 mm 3 mps 748 mmHg 88%
04:00 +29°C° 1.1 mm 4 mps 748 mmHg 88%
05:00 +29°C° 1.1 mm 4 mps 748 mmHg 87%
06:00 +29°C° 1.1 mm 4 mps 748 mmHg 87%
07:00 +30°C° 2.4 mm 5 mps 749 mmHg 84%
08:00 +32°C° 2.4 mm 5 mps 749 mmHg 81%
09:00 +32°C° 2.4 mm 5 mps 749 mmHg 79%
10:00 +32°C° 2.4 mm 5 mps 749 mmHg 81%
11:00 +30°C° 2.4 mm 5 mps 750 mmHg 84%
12:00 +29°C° 2.4 mm 5 mps 750 mmHg 87%
13:00 +29°C° 0.4 mm 5 mps 749 mmHg 87%
14:00 +29°C° 0.4 mm 5 mps 749 mmHg 87%
15:00 +29°C° 0.4 mm 5 mps 748 mmHg 87%
16:00 +29°C° 0 mm 5 mps 749 mmHg 87%
17:00 +29°C° 0 mm 4 mps 749 mmHg 88%
18:00 +28°C° 0 mm 4 mps 749 mmHg 89%
19:00 +28°C° 0.1 mm 3 mps 749 mmHg 90%
20:00 +28°C° 0.1 mm 3 mps 750 mmHg 91%
21:00 +28°C° 0.1 mm 3 mps 750 mmHg 91%
22:00 +28°C° 0.1 mm 3 mps 750 mmHg 91%
23:00 +28°C° 0.1 mm 3 mps 750 mmHg 91%

13 July, Monday

Time Temperature Precipitation Wind Pressure Humidity
00:00 +28°C° 0.1 mm 3 mps 750 mmHg 92%
01:00 +28°C° 0.6 mm 3 mps 750 mmHg 90%
02:00 +28°C° 0.6 mm 3 mps 749 mmHg 89%
03:00 +28°C° 0.6 mm 3 mps 749 mmHg 88%
04:00 +28°C° 0.5 mm 3 mps 749 mmHg 89%
05:00 +28°C° 0.5 mm 4 mps 749 mmHg 89%
06:00 +28°C° 0.5 mm 4 mps 750 mmHg 90%
07:00 +28°C° 0.4 mm 4 mps 750 mmHg 90%
08:00 +28°C° 0.4 mm 4 mps 751 mmHg 91%
09:00 +28°C° 0.4 mm 4 mps 751 mmHg 91%
10:00 +28°C° 0.8 mm 4 mps 751 mmHg 91%
11:00 +27°C° 0.8 mm 4 mps 751 mmHg 91%
12:00 +27°C° 0.8 mm 3 mps 751 mmHg 91%
13:00 +27°C° 0.3 mm 3 mps 751 mmHg 91%
14:00 +28°C° 0.3 mm 3 mps 751 mmHg 91%
15:00 +28°C° 0.3 mm 2 mps 751 mmHg 91%
16:00 +28°C° 0.3 mm 3 mps 751 mmHg 91%
17:00 +27°C° 0.3 mm 3 mps 751 mmHg 92%
18:00 +27°C° 0.3 mm 4 mps 751 mmHg 92%
19:00 +27°C° 0.1 mm 4 mps 751 mmHg 92%
20:00 +27°C° 0.1 mm 4 mps 752 mmHg 91%
21:00 +27°C° 0.1 mm 4 mps 752 mmHg 90%
22:00 +27°C° 0 mm 3 mps 752 mmHg 90%
23:00 +27°C° 0 mm 3 mps 752 mmHg 90%

14 July, Tuesday

Time Temperature Precipitation Wind Pressure Humidity
00:00 +27°C° 0 mm 3 mps 753 mmHg 89%
01:00 +27°C° 0 mm 3 mps 752 mmHg 90%
02:00 +27°C° 0 mm 3 mps 752 mmHg 90%
03:00 +27°C° 0 mm 3 mps 752 mmHg 91%
04:00 +27°C° 0.8 mm 3 mps 752 mmHg 91%
05:00 +27°C° 0.8 mm 3 mps 752 mmHg 92%
06:00 +27°C° 0.8 mm 3 mps 753 mmHg 92%
07:00 +28°C° 1.7 mm 3 mps 753 mmHg 88%
08:00 +30°C° 1.7 mm 4 mps 753 mmHg 83%
09:00 +32°C° 1.7 mm 5 mps 754 mmHg 79%
10:00 +33°C° 1.1 mm 5 mps 754 mmHg 75%
11:00 +34°C° 1.1 mm 4 mps 753 mmHg 72%
12:00 +35°C° 1.1 mm 4 mps 753 mmHg 68%
13:00 +35°C° 1 mm 4 mps 753 mmHg 67%
14:00 +35°C° 1 mm 4 mps 752 mmHg 67%
15:00 +35°C° 1 mm 4 mps 752 mmHg 66%
16:00 +34°C° 0.2 mm 4 mps 751 mmHg 69%
17:00 +34°C° 0.2 mm 4 mps 751 mmHg 72%
18:00 +33°C° 0.2 mm 3 mps 751 mmHg 75%
19:00 +31°C° 0 mm 3 mps 751 mmHg 78%
20:00 +30°C° 0 mm 3 mps 752 mmHg 82%
21:00 +29°C° 0 mm 3 mps 752 mmHg 86%
22:00 +29°C° 0 mm 2 mps 752 mmHg 87%
23:00 +29°C° 0 mm 2 mps 753 mmHg 89%

15 July, Wednesday

Time Temperature Precipitation Wind Pressure Humidity
00:00 +29°C° 0 mm 2 mps 753 mmHg 90%
01:00 +29°C° 0 mm 2 mps 753 mmHg 91%
02:00 +29°C° 0 mm 2 mps 752 mmHg 91%
03:00 +28°C° 0 mm 2 mps 752 mmHg 91%
04:00 +28°C° 0 mm 2 mps 752 mmHg 91%
05:00 +29°C° 0 mm 1 mps 752 mmHg 91%
06:00 +29°C° 0 mm 1 mps 752 mmHg 91%
07:00 +30°C° 0 mm 1 mps 752 mmHg 84%
08:00 +31°C° 0 mm 1 mps 753 mmHg 78%
09:00 +32°C° 0 mm 1 mps 753 mmHg 71%
10:00 +33°C° 0.6 mm 1 mps 753 mmHg 68%
11:00 +35°C° 0.6 mm 2 mps 752 mmHg 66%
12:00 +36°C° 0.6 mm 2 mps 752 mmHg 63%
13:00 +35°C° 2.7 mm 2 mps 752 mmHg 65%
14:00 +35°C° 2.7 mm 3 mps 751 mmHg 67%
15:00 +35°C° 2.7 mm 3 mps 750 mmHg 68%
16:00 +34°C° 1.1 mm 3 mps 750 mmHg 71%
17:00 +34°C° 1.1 mm 3 mps 749 mmHg 74%
18:00 +33°C° 1.1 mm 4 mps 749 mmHg 77%
19:00 +31°C° 0.2 mm 3 mps 750 mmHg 80%
20:00 +31°C° 0.2 mm 3 mps 750 mmHg 83%
21:00 +30°C° 0.2 mm 3 mps 751 mmHg 86%
22:00 +29°C° 0 mm 3 mps 751 mmHg 87%
23:00 +29°C° 0 mm 3 mps 751 mmHg 89%
Show more